Theta_e
323 324 338 334 337 339 341 345 342 342 333 340 340 338 335 332 330 329 325 320 316 311 309 308 308 305 304 308 309 308 310 308 310 310 310 312 310 309 309 305 304 303 303
325 323 332 334 333 339 342 342 344 343 341 339 337 334 332 332 329 331 328 317 311 309 307 307 303 300 299 305 305 307 305 309 309 309 311 309 309 309 307 304 303 303 302
325 325 326 332 335 339 340 339 337 342 339 337 333 332 332 332 326 321 315 311 309 307 306 302 300 298 298 301 300 302 302 307 307 309 308 308 308 307 307 305 304 303 302
326 325 330 335 334 333 333 336 336 336 337 335 333 333 333 326 321 315 311 308 307 304 300 299 297 297 298 299 301 301 301 304 306 308 307 306 305 306 305 303 304 303 303
325 327 331 334 331 333 333 334 333 332 326 331 329 331 327 321 313 311 308 306 303 302 302 298 297 297 300 303 304 305 304 304 306 305 305 306 305 305 303 303 303 303 302
325 330 329 329 329 329 328 327 326 321 320 327 322 316 315 314 310 307 306 304 303 302 301 299 297 296 301 303 305 306 306 304 305 304 305 305 304 303 303 303 303 302 301
326 328 328 329 329 331 327 326 324 324 317 326 315 316 313 309 306 305 302 300 298 298 298 297 296 296 299 302 305 306 306 305 304 305 306 304 304 303 302 302 302 302 302
328 328 328 328 329 329 326 323 323 321 316 316 314 312 308 305 303 299 298 298 297 297 296 295 295 295 296 298 303 305 306 304 304 305 306 304 302 302 303 304 303 303 302
326 329 326 328 328 326 324 321 322 320 313 311 307 306 308 302 302 298 297 296 296 295 295 295 295 295 295 298 304 305 304 304 304 305 305 302 303 304 303 304 304 304 302
326 327 327 327 326 325 324 324 321 323 316 306 303 302 299 298 298 298 300 301 300 296 294 297 299 298 297 301 303 304 304 304 304 305 306 303 303 305 305 305 304 304 302
327 325 324 325 325 324 322 320 312 311 309 306 299 298 300 298 301 302 303 302 300 298 298 301 302 302 300 299 302 302 303 303 304 305 305 305 302 305 305 305 305 305 305
324 322 321 320 321 320 319 314 315 312 304 299 304 296 296 299 301 302 301 299 296 298 301 302 303 302 301 301 302 302 302 304 304 304 305 304 305 306 306 306 306 306 305
322 321 319 320 319 319 318 315 316 303 302 299 294 294 294 294 294 295 296 299 301 302 303 302 303 302 301 302 302 304 304 304 304 304 304 304 305 305 306 306 304 305 305
320 318 319 320 317 314 313 314 307 302 295 294 294 295 296 296 296 297 299 301 302 303 304 304 303 302 303 303 304 304 304 304 304 304 303 304 305 306 306 305 305 304 304
317 316 316 316 314 309 301 298 300 300 299 299 300 299 299 298 297 298 300 302 303 304 303 302 302 303 303 304 303 303 303 303 304 304 303 304 304 304 304 304 305 303 303
313 313 315 314 310 304 301 302 302 300 300 299 298 296 295 296 299 300 301 302 303 302 302 303 303 303 303 302 302 303 303 303 302 302 302 304 305 304 304 304 304 303 303
315 313 310 310 304 302 305 301 298 298 295 293 294 294 295 297 298 300 301 302 302 302 302 302 302 301 301 301 302 301 302 302 302 302 302 303 303 304 303 303 303 303 304
311 309 310 306 302 304 298 298 294 292 292 294 295 296 297 297 298 299 300 301 303 302 301 300 301 302 301 301 301 301 301 302 302 302 301 302 303 303 303 303 302 303 305
311 309 307 304 303 298 293 292 292 293 294 295 296 296 297 297 297 298 299 300 301 302 301 301 301 301 301 301 301 301 301 302 302 302 301 301 302 301 302 302 303 303 304
310 307 303 301 293 292 292 292 292 293 294 296 296 297 297 296 296 297 297 298 299 299 300 299 299 299 299 300 300 300 300 301 302 302 302 301 301 302 302 302 302 303 304
301 301 296 294 293 292 292 293 294 296 297 297 297 296 296 296 296 296 296 296 296 296 296 297 296 296 296 297 299 300 300 301 301 301 301 302 301 301 302 302 301 302 303
306 298 295 294 294 295 297 297 296 296 296 295 295 296 296 296 296 296 295 295 295 295 294 294 293 293 293 295 298 299 300 300 301 301 301 301 301 301 301 301 300 300 302
299 296 296 297 297 296 295 295 295 294 295 295 295 296 296 296 295 295 294 293 292 292 292 291 291 291 291 292 296 298 299 300 300 300 301 301 301 301 301 301 300 300 302
299 297 296 296 295 295 294 295 296 296 295 295 295 295 295 295 295 295 294 294 293 291 290 291 291 291 291 291 292 294 296 297 298 298 300 300 300 300 300 300 300 300 301
296 296 296 295 296 296 296 296 296 295 295 295 295 295 295 295 294 294 293 293 291 291 291 291 291 291 291 290 291 292 293 293 293 295 298 299 298 299 299 299 299 299 301
296 297 296 296 296 296 296 296 295 295 295 295 294 294 294 294 294 293 293 292 291 291 291 291 291 290 290 290 291 291 292 293 294 293 291 294 297 297 298 298 297 298 299
Wind_Speed
22 16 19 17 20 24 30 24 35 27 40 39 35 31 27 26 18 13 9 7 5 5 3 6 7 7 6 5 7 7 8 11 13 16 17 14 25 30 26 27 24 21 25
14 20 16 19 20 24 24 25 33 35 34 36 36 29 26 19 13 9 13 10 8 6 6 7 7 8 5 5 8 9 10 10 14 14 14 20 25 25 28 28 23 21 27
13 16 20 18 17 18 19 25 27 39 32 37 29 25 23 17 17 13 13 13 10 8 7 8 9 7 7 10 11 11 12 12 10 14 13 18 21 28 30 28 29 25 25
14 17 16 19 15 13 12 16 30 30 43 35 30 22 21 19 17 16 15 12 12 12 10 10 9 10 12 12 13 15 15 11 11 14 15 23 26 30 31 32 31 31 28
15 16 14 17 9 9 16 24 24 21 33 44 33 26 25 23 20 17 14 14 13 12 11 12 11 10 13 18 16 18 20 19 15 16 23 26 30 33 34 32 30 31 28
13 9 7 11 13 25 27 23 20 24 30 40 38 41 34 28 22 18 17 18 16 14 12 11 12 10 10 14 14 16 20 22 21 21 23 24 26 27 30 27 27 34 32
11 10 14 14 17 19 20 21 26 23 27 36 37 35 32 29 21 16 15 17 15 13 12 11 12 11 9 11 12 14 15 18 21 21 21 22 23 26 33 33 30 32 42
6 12 12 13 19 20 26 29 36 36 32 36 31 30 32 26 23 18 15 16 15 15 14 14 12 12 12 12 12 10 9 15 21 22 19 18 19 22 26 24 27 26 29
12 21 22 25 25 27 34 39 39 38 37 36 34 32 31 29 22 18 17 18 18 19 18 17 18 16 14 13 15 12 11 16 18 19 15 16 22 26 25 26 28 31 28
20 28 32 38 41 38 38 36 37 34 34 30 30 30 27 26 23 21 20 18 17 18 19 22 25 24 16 14 15 16 19 17 15 15 11 12 18 22 26 27 26 30 32
25 30 37 40 41 36 30 37 41 39 39 34 33 28 26 24 27 24 20 19 16 13 21 24 23 24 22 12 11 16 16 12 13 15 15 16 18 20 22 24 25 27 27
32 34 38 40 39 35 38 39 37 34 35 31 31 29 28 26 24 20 19 14 17 24 27 26 22 20 21 21 20 18 14 14 17 17 20 22 23 23 24 24 24 23 25
35 38 40 43 40 40 40 39 38 37 31 32 33 32 30 26 25 23 27 31 32 29 27 22 18 16 17 21 21 20 19 21 21 20 18 20 22 22 25 22 27 23 23
42 48 48 45 46 43 42 36 38 33 33 33 35 34 31 28 25 23 25 27 26 24 23 21 15 16 21 23 23 24 24 26 25 26 25 20 22 23 26 23 26 26 20
50 49 48 49 49 47 47 41 40 31 28 24 26 29 28 27 23 26 29 27 24 20 13 18 26 25 26 29 35 36 35 34 30 31 35 25 26 27 26 25 25 24 24
55 56 54 49 51 50 45 42 33 27 28 25 25 31 32 35 34 32 29 27 21 13 28 30 29 28 30 32 32 33 31 28 29 30 31 28 24 24 24 25 25 23 30
57 53 54 57 53 51 43 41 41 30 27 34 35 36 36 36 34 32 28 27 21 29 32 28 29 30 30 27 30 31 28 30 32 30 27 27 29 27 26 27 24 21 21
55 60 61 54 52 49 45 41 44 47 47 45 41 39 37 34 30 28 27 30 29 25 23 26 28 29 27 26 26 25 24 26 28 27 23 22 25 24 24 25 25 26 25
66 61 57 50 46 46 51 52 51 49 47 44 40 36 34 31 30 28 28 28 25 21 21 26 25 24 25 24 25 24 22 23 26 27 25 24 25 24 23 26 23 24 20
58 58 55 53 50 49 52 51 51 49 47 41 36 32 30 31 31 30 27 24 23 23 25 24 24 19 18 17 20 22 22 23 27 28 25 25 25 24 24 24 26 25 21
60 58 44 47 47 51 49 48 45 37 31 29 29 27 29 30 29 26 23 24 26 28 24 22 19 18 17 17 15 19 24 23 26 26 28 24 25 27 27 26 27 24 26
60 52 45 47 43 43 35 35 38 38 38 37 33 30 28 27 26 26 26 26 25 24 21 20 20 20 21 23 23 19 23 25 24 24 25 26 24 26 27 28 24 29 30
52 50 43 40 38 39 42 40 42 42 38 35 30 28 26 27 29 28 28 26 26 24 23 24 23 23 23 24 25 25 22 23 24 19 22 22 24 24 25 27 27 28 30
52 43 41 44 40 42 45 42 36 34 33 31 29 28 29 29 28 27 27 25 23 22 25 26 26 25 24 25 25 23 21 20 20 19 17 22 21 21 24 23 26 27 26
45 44 43 43 40 40 41 38 37 36 33 31 30 30 29 28 27 26 25 23 23 24 25 25 24 24 25 25 23 20 21 24 25 20 19 19 23 23 24 22 24 27 25
45 41 41 42 41 40 39 40 38 35 32 31 30 29 28 27 26 24 22 22 23 24 24 23 22 22 22 23 22 23 23 20 23 26 27 23 23 25 24 24 23 25 27
Wind_Direction
250 263 245 260 262 268 252 231 199 192 178 197 180 166 166 168 164 135 113 131 112 114 75 53 49 59 41 68 31 31 353 11 0 351 6 341 335 342 354 2 4 17 11
278 260 259 264 271 260 253 236 191 201 187 182 166 167 162 151 155 159 169 153 144 117 86 72 63 52 23 63 36 41 2 39 4 2 5 339 338 359 7 11 23 28 17
295 264 256 253 265 259 260 232 193 197 185 169 173 167 155 156 151 146 143 147 133 108 95 80 66 56 49 43 35 32 40 42 11 20 354 336 8 8 13 27 32 30 22
294 270 254 220 242 249 247 225 193 213 186 175 160 161 159 141 155 151 144 127 113 106 94 77 71 59 49 47 43 39 36 34 44 24 355 12 16 15 23 26 26 29 18
283 280 241 202 185 192 201 182 188 202 174 163 155 158 143 147 149 139 130 120 109 99 85 70 58 47 59 52 41 36 34 39 39 27 18 18 18 20 26 30 31 29 21
262 262 224 208 194 132 131 129 135 125 137 138 143 143 141 136 133 133 127 124 124 113 90 61 53 48 59 64 41 40 32 31 29 26 23 27 25 29 36 36 26 25 18
276 245 236 197 194 184 166 162 148 161 145 148 146 139 134 131 130 116 120 122 111 97 82 69 58 57 62 68 55 48 44 31 22 28 30 30 33 47 49 48 44 33 31
214 180 193 180 170 179 172 160 162 160 146 140 138 136 127 119 109 114 111 104 100 85 79 69 62 56 51 61 82 64 42 32 27 26 35 40 49 55 50 37 29 22 28
219 168 157 164 163 165 153 150 143 145 140 139 141 132 123 114 119 126 115 101 93 85 76 68 58 57 53 68 84 80 58 52 25 25 42 58 63 57 47 42 38 24 32
188 178 161 158 158 157 148 145 145 154 143 134 121 118 119 124 122 111 95 88 77 76 72 64 57 55 60 73 70 66 58 40 31 34 57 75 60 54 53 49 46 36 31
177 167 165 161 154 148 150 151 142 136 136 131 125 122 121 120 108 104 104 103 104 84 73 67 55 46 40 59 70 68 61 45 36 45 60 63 58 60 52 52 44 39 34
173 166 165 154 149 146 146 145 142 131 124 133 125 121 119 120 125 134 134 111 95 84 75 70 58 47 32 52 63 68 68 58 59 66 70 71 71 62 57 51 47 44 36
165 160 157 151 147 153 153 145 142 131 134 127 124 120 113 113 108 106 105 90 78 74 74 79 78 54 35 54 57 57 58 60 61 62 60 72 59 49 35 49 56 47 39
158 153 150 151 148 144 140 137 129 136 131 124 122 114 110 106 103 102 99 92 86 81 79 87 70 59 67 64 61 60 62 60 60 55 49 66 69 54 54 49 56 50 45
155 150 149 151 150 139 123 124 135 134 131 133 132 135 130 120 113 106 100 98 95 96 99 86 81 73 73 73 69 65 63 59 56 59 50 67 65 56 50 45 50 51 45
146 149 150 147 142 133 132 132 132 137 156 154 135 125 118 111 110 107 103 99 100 91 91 82 78 78 79 77 63 53 53 51 53 52 46 52 57 53 53 47 55 53 53
153 154 148 145 136 137 137 139 144 145 134 123 118 112 109 111 109 105 102 99 85 85 84 85 83 76 67 58 54 46 51 53 50 43 44 48 58 52 46 40 51 53 53
154 149 147 142 140 140 143 140 134 129 122 112 108 107 105 103 101 100 97 92 84 74 79 75 65 57 57 56 57 53 57 58 52 46 44 45 46 39 41 46 50 50 55
153 151 143 141 138 138 137 133 129 122 117 116 114 111 112 111 107 98 91 89 93 92 78 73 68 64 57 56 54 52 57 58 50 47 44 45 48 46 44 43 44 52 56
145 141 138 138 135 136 135 131 125 122 119 117 114 111 109 108 99 97 95 98 96 89 82 77 69 64 63 63 62 50 55 57 53 46 45 45 48 49 42 47 48 51 64
137 135 128 133 138 135 128 122 117 114 119 124 119 118 113 106 103 103 104 95 89 86 80 77 75 68 62 61 73 73 59 57 54 51 44 49 45 44 49 48 46 57 55
143 134 135 134 131 127 126 131 129 130 126 119 112 110 111 112 114 107 98 96 97 94 91 85 76 70 64 59 57 67 71 64 54 49 47 50 48 47 49 46 51 54 44
136 137 128 130 134 136 132 130 127 120 113 110 116 121 123 113 103 97 90 86 84 84 83 80 79 75 70 68 64 62 65 60 55 46 55 50 52 53 50 51 46 51 48
136 133 135 135 131 127 121 113 115 121 122 126 128 123 114 108 102 99 96 91 87 81 79 76 73 71 68 66 63 61 59 58 58 56 66 60 51 57 56 54 55 52 48
129 130 131 129 126 123 124 130 129 126 125 123 116 111 108 105 101 95 90 89 89 85 80 76 73 70 68 65 64 65 65 61 51 54 66 70 63 58 54 60 61 58 49
124 128 130 129 129 132 134 127 122 123 121 117 112 110 108 105 101 97 94 90 86 82 79 76 75 74 71 69 67 66 63 65 66 49 51 64 66 61 62 59 67 68 56